Time,TemperatureF,DewpointF,PressureIn,WindDirection,WindDirectionDegrees,WindSpeedMPH,WindSpeedGustMPH,Humidity,HourlyPrecipIn,Conditions,Clouds,dailyrainin,SoftwareType,DateUTC
2013-01-08 00:02:00,26.0,17.0,30.31,South,180,1.0,5.0,68,0.00,,,0.00,,2013-01-08 06:02:00,
2013-01-08 00:12:00,26.0,17.0,30.31,South,180,1.0,5.0,68,0.00,,,0.00,,2013-01-08 06:12:00,
2013-01-08 00:22:00,26.0,17.0,30.31,SSW,202,0.0,1.0,68,0.00,,,0.00,,2013-01-08 06:22:00,
2013-01-08 00:32:00,26.0,17.0,30.32,South,171,0.0,5.0,68,0.00,,,0.00,,2013-01-08 06:32:00,
2013-01-08 00:42:00,26.0,17.0,30.32,South,171,0.0,5.0,68,0.00,,,0.00,,2013-01-08 06:42:00,
2013-01-08 00:53:00,25.0,16.0,30.32,South,180,1.0,8.0,69,0.00,,,0.00,,2013-01-08 06:53:00,
2013-01-08 01:02:00,25.0,17.0,30.32,South,180,0.0,1.0,70,0.00,,,0.00,,2013-01-08 07:02:00,
2013-01-08 01:12:00,25.0,17.0,30.32,South,180,0.0,1.0,70,0.00,,,0.00,,2013-01-08 07:12:00,
2013-01-08 01:22:00,25.0,17.0,30.32,South,180,1.0,2.0,71,0.00,,,0.00,,2013-01-08 07:22:00,
2013-01-08 01:32:00,25.0,17.0,30.32,South,182,0.0,3.0,71,0.00,,,0.00,,2013-01-08 07:32:00,
2013-01-08 01:42:00,25.0,17.0,30.32,South,182,0.0,3.0,71,0.00,,,0.00,,2013-01-08 07:42:00,
2013-01-08 01:52:00,25.0,17.0,30.32,South,180,1.0,8.0,72,0.00,,,0.00,,2013-01-08 07:52:00,
2013-01-08 02:02:00,25.0,17.0,30.32,South,180,5.0,8.0,72,0.00,,,0.00,,2013-01-08 08:02:00,
2013-01-08 02:12:00,25.0,17.0,30.32,South,180,5.0,8.0,72,0.00,,,0.00,,2013-01-08 08:12:00,
2013-01-08 02:22:00,25.0,18.0,30.32,SSW,202,2.0,3.0,73,0.00,,,0.00,,2013-01-08 08:22:00,
2013-01-08 02:32:00,25.0,18.0,30.32,South,180,0.0,2.0,73,0.00,,,0.00,,2013-01-08 08:32:00,
2013-01-08 02:42:00,25.0,18.0,30.32,South,180,0.0,2.0,73,0.00,,,0.00,,2013-01-08 08:42:00,
2013-01-08 02:53:00,24.0,17.0,30.31,South,180,1.0,2.0,73,0.00,,,0.00,,2013-01-08 08:53:00,
2013-01-08 03:02:00,24.0,17.0,30.32,South,180,1.0,2.0,73,0.00,,,0.00,,2013-01-08 09:02:00,
2013-01-08 03:12:00,24.0,17.0,30.32,South,180,1.0,2.0,73,0.00,,,0.00,,2013-01-08 09:12:00,
2013-01-08 03:22:00,24.0,17.0,30.31,South,180,3.0,3.0,73,0.00,,,0.00,,2013-01-08 09:22:00,
2013-01-08 03:32:00,24.0,17.0,30.31,SSE,158,0.0,0.0,73,0.00,,,0.00,,2013-01-08 09:32:00,
2013-01-08 03:42:00,24.0,17.0,30.31,SSE,158,0.0,0.0,73,0.00,,,0.00,,2013-01-08 09:42:00,
2013-01-08 03:52:00,24.0,17.0,30.31,South,169,0.0,1.0,74,0.00,,,0.00,,2013-01-08 09:52:00,
2013-01-08 04:02:00,24.0,17.0,30.31,South,180,0.0,0.0,74,0.00,,,0.00,,2013-01-08 10:02:00,
2013-01-08 04:12:00,24.0,17.0,30.31,South,180,0.0,0.0,74,0.00,,,0.00,,2013-01-08 10:12:00,
2013-01-08 04:22:00,24.0,17.0,30.31,South,180,0.0,2.0,74,0.00,,,0.00,,2013-01-08 10:22:00,
2013-01-08 04:32:00,24.0,17.0,30.31,SSE,158,0.0,0.0,74,0.00,,,0.00,,2013-01-08 10:32:00,
2013-01-08 04:42:00,24.0,17.0,30.31,SSE,158,0.0,0.0,74,0.00,,,0.00,,2013-01-08 10:42:00,
2013-01-08 04:52:00,24.0,17.0,30.31,South,180,0.0,0.0,74,0.00,,,0.00,,2013-01-08 10:52:00,
2013-01-08 05:02:00,24.0,17.0,30.31,South,180,0.0,0.0,74,0.00,,,0.00,,2013-01-08 11:02:00,
2013-01-08 05:12:00,24.0,17.0,30.31,South,180,0.0,0.0,74,0.00,,,0.00,,2013-01-08 11:12:00,
2013-01-08 05:22:00,24.0,17.0,30.31,SSE,158,0.0,0.0,74,0.00,,,0.00,,2013-01-08 11:22:00,
2013-01-08 05:32:00,24.0,17.0,30.31,SSE,158,0.0,0.0,73,0.00,,,0.00,,2013-01-08 11:32:00,
2013-01-08 05:42:00,24.0,17.0,30.31,SSE,158,0.0,0.0,73,0.00,,,0.00,,2013-01-08 11:42:00,
2013-01-08 05:53:00,24.0,17.0,30.31,South,180,0.0,0.0,74,0.00,,,0.00,,2013-01-08 11:53:00,
2013-01-08 06:02:00,24.0,17.0,30.31,South,180,0.0,1.0,75,0.00,,,0.00,,2013-01-08 12:02:00,
2013-01-08 06:12:00,24.0,17.0,30.31,South,180,0.0,1.0,75,0.00,,,0.00,,2013-01-08 12:12:00,
2013-01-08 06:22:00,24.0,17.0,30.31,South,180,0.0,0.0,75,0.00,,,0.00,,2013-01-08 12:22:00,
2013-01-08 06:32:00,24.0,17.0,30.31,SSE,158,0.0,0.0,74,0.00,,,0.00,,2013-01-08 12:32:00,
2013-01-08 06:42:00,24.0,17.0,30.31,SSE,158,0.0,0.0,74,0.00,,,0.00,,2013-01-08 12:42:00,
2013-01-08 06:53:00,24.0,17.0,30.32,SSE,158,0.0,0.0,74,0.00,,,0.00,,2013-01-08 12:53:00,
2013-01-08 07:03:00,23.0,16.0,30.32,SSE,158,0.0,0.0,74,0.00,,,0.00,,2013-01-08 13:03:00,
2013-01-08 07:12:00,23.0,16.0,30.32,SSE,158,0.0,0.0,74,0.00,,,0.00,,2013-01-08 13:12:00,
2013-01-08 07:22:00,23.0,16.0,30.32,South,180,0.0,0.0,74,0.00,,,0.00,,2013-01-08 13:22:00,
2013-01-08 07:32:00,23.0,16.0,30.33,South,180,0.0,0.0,75,0.00,,,0.00,,2013-01-08 13:32:00,
2013-01-08 07:42:00,23.0,16.0,30.33,South,180,0.0,0.0,75,0.00,,,0.00,,2013-01-08 13:42:00,
2013-01-08 07:53:00,23.0,16.0,30.34,SSE,158,0.0,0.0,75,0.00,,,0.00,,2013-01-08 13:53:00,
2013-01-08 08:02:00,24.0,18.0,30.34,SSE,158,1.0,1.0,76,0.00,,,0.00,,2013-01-08 14:02:00,
2013-01-08 08:12:00,24.0,18.0,30.34,SSE,158,1.0,1.0,76,0.00,,,0.00,,2013-01-08 14:12:00,
2013-01-08 08:23:00,25.0,19.0,30.35,South,180,0.0,0.0,76,0.00,,,0.00,,2013-01-08 14:23:00,
2013-01-08 08:33:00,26.0,19.0,30.35,South,180,0.0,0.0,76,0.00,,,0.00,,2013-01-08 14:33:00,
2013-01-08 08:42:00,26.0,19.0,30.35,South,180,0.0,0.0,76,0.00,,,0.00,,2013-01-08 14:42:00,
2013-01-08 08:53:00,28.0,21.0,30.36,South,187,6.0,7.0,75,0.00,,,0.00,,2013-01-08 14:53:00,
2013-01-08 09:02:00,28.0,21.0,30.36,SSE,158,2.0,8.0,74,0.00,,,0.00,,2013-01-08 15:02:00,
2013-01-08 09:12:00,28.0,21.0,30.36,SSE,158,2.0,8.0,74,0.00,,,0.00,,2013-01-08 15:12:00,
2013-01-08 09:22:00,29.0,21.0,30.37,South,179,0.0,1.0,73,0.00,,,0.00,,2013-01-08 15:22:00,
2013-01-08 09:33:00,29.0,21.0,30.36,South,180,3.0,5.0,72,0.00,,,0.00,,2013-01-08 15:33:00,
2013-01-08 09:43:00,29.0,21.0,30.36,South,180,3.0,5.0,72,0.00,,,0.00,,2013-01-08 15:43:00,
2013-01-08 09:53:00,31.0,22.0,30.37,South,181,5.0,8.0,70,0.00,,,0.00,,2013-01-08 15:53:00,
2013-01-08 10:03:00,31.0,22.0,30.37,SSE,158,3.0,8.0,70,0.00,,,0.00,,2013-01-08 16:03:00,
2013-01-08 10:12:00,31.0,22.0,30.37,SSE,158,3.0,8.0,70,0.00,,,0.00,,2013-01-08 16:12:00,
2013-01-08 10:22:00,32.0,23.0,30.36,South,174,7.0,8.0,68,0.00,,,0.00,,2013-01-08 16:22:00,
2013-01-08 10:33:00,33.0,24.0,30.36,South,180,5.0,6.0,68,0.00,,,0.00,,2013-01-08 16:33:00,
2013-01-08 10:42:00,33.0,24.0,30.36,South,180,5.0,6.0,68,0.00,,,0.00,,2013-01-08 16:42:00,
2013-01-08 10:53:00,34.0,23.0,30.35,SSW,202,8.0,10.0,65,0.00,,,0.00,,2013-01-08 16:53:00,
2013-01-08 11:03:00,34.0,23.0,30.35,SSE,163,3.0,5.0,65,0.00,,,0.00,,2013-01-08 17:03:00,
2013-01-08 11:12:00,34.0,23.0,30.35,SSE,163,3.0,5.0,65,0.00,,,0.00,,2013-01-08 17:12:00,
2013-01-08 11:23:00,35.0,24.0,30.35,SSW,202,5.0,7.0,63,0.00,,,0.00,,2013-01-08 17:23:00,
2013-01-08 11:33:00,36.0,24.0,30.35,SSE,158,6.0,9.0,62,0.00,,,0.00,,2013-01-08 17:33:00,
2013-01-08 11:43:00,36.0,24.0,30.35,SSE,158,6.0,9.0,62,0.00,,,0.00,,2013-01-08 17:43:00,
2013-01-08 11:53:00,37.0,25.0,30.35,South,180,2.0,7.0,61,0.00,,,0.00,,2013-01-08 17:53:00,
2013-01-08 12:03:00,38.0,25.0,30.34,South,182,2.0,6.0,59,0.00,,,0.00,,2013-01-08 18:03:00,
2013-01-08 12:12:00,38.0,25.0,30.34,South,182,2.0,6.0,59,0.00,,,0.00,,2013-01-08 18:12:00,
2013-01-08 12:23:00,40.0,26.0,30.33,SE,135,0.0,7.0,56,0.00,,,0.00,,2013-01-08 18:23:00,
2013-01-08 12:33:00,41.0,26.0,30.32,SSW,202,2.0,6.0,55,0.00,,,0.00,,2013-01-08 18:33:00,
2013-01-08 12:43:00,41.0,26.0,30.32,SSW,202,2.0,6.0,55,0.00,,,0.00,,2013-01-08 18:43:00,
2013-01-08 12:53:00,40.0,25.0,30.32,South,180,0.0,2.0,55,0.00,,,0.00,,2013-01-08 18:53:00,
2013-01-08 13:03:00,41.0,26.0,30.31,South,180,1.0,5.0,55,0.00,,,0.00,,2013-01-08 19:03:00,
2013-01-08 13:12:00,41.0,26.0,30.31,South,180,1.0,5.0,55,0.00,,,0.00,,2013-01-08 19:12:00,
2013-01-08 13:22:00,44.0,27.0,30.31,SE,135,3.0,3.0,50,0.00,,,0.00,,2013-01-08 19:22:00,
2013-01-08 13:32:00,44.0,26.0,30.31,South,174,5.0,7.0,49,0.00,,,0.00,,2013-01-08 19:32:00,
2013-01-08 13:42:00,44.0,26.0,30.31,South,174,5.0,7.0,49,0.00,,,0.00,,2013-01-08 19:42:00,
2013-01-08 13:53:00,43.0,25.0,30.31,South,180,6.0,7.0,49,0.00,,,0.00,,2013-01-08 19:53:00,
2013-01-08 14:02:00,43.0,25.0,30.31,South,180,6.0,7.0,49,0.00,,,0.00,,2013-01-08 20:02:00,
2013-01-08 14:12:00,43.0,25.0,30.31,South,180,6.0,7.0,49,0.00,,,0.00,,2013-01-08 20:12:00,
2013-01-08 14:23:00,43.0,26.0,30.30,SE,135,1.0,7.0,50,0.00,,,0.00,,2013-01-08 20:23:00,
2013-01-08 14:33:00,42.0,25.0,30.30,SSE,158,5.0,8.0,50,0.00,,,0.00,,2013-01-08 20:33:00,
2013-01-08 14:43:00,42.0,25.0,30.30,SSE,158,5.0,8.0,50,0.00,,,0.00,,2013-01-08 20:43:00,
2013-01-08 14:53:00,42.0,26.0,30.31,South,180,7.0,8.0,53,0.00,,,0.00,,2013-01-08 20:53:00,
2013-01-08 15:02:00,42.0,26.0,30.31,South,180,7.0,8.0,53,0.00,,,0.00,,2013-01-08 21:02:00,
2013-01-08 15:12:00,42.0,26.0,30.31,South,180,7.0,8.0,53,0.00,,,0.00,,2013-01-08 21:12:00,
2013-01-08 15:22:00,40.0,25.0,30.31,South,180,4.0,6.0,55,0.00,,,0.00,,2013-01-08 21:22:00,
2013-01-08 15:33:00,44.0,28.0,30.31,South,169,5.0,6.0,53,0.00,,,0.00,,2013-01-08 21:33:00,
2013-01-08 15:43:00,44.0,28.0,30.31,South,169,5.0,6.0,53,0.00,,,0.00,,2013-01-08 21:43:00,
2013-01-08 15:53:00,44.0,27.0,30.31,South,180,3.0,5.0,51,0.00,,,0.00,,2013-01-08 21:53:00,
2013-01-08 16:03:00,44.0,26.0,30.31,South,179,0.0,6.0,48,0.00,,,0.00,,2013-01-08 22:03:00,
2013-01-08 16:12:00,44.0,26.0,30.31,South,179,0.0,6.0,48,0.00,,,0.00,,2013-01-08 22:12:00,
2013-01-08 16:22:00,45.0,27.0,30.29,South,180,3.0,7.0,48,0.00,,,0.00,,2013-01-08 22:22:00,
2013-01-08 16:32:00,43.0,24.0,30.30,SSW,202,0.0,9.0,47,0.00,,,0.00,,2013-01-08 22:32:00,
2013-01-08 16:42:00,43.0,24.0,30.30,SSW,202,0.0,9.0,47,0.00,,,0.00,,2013-01-08 22:42:00,
2013-01-08 16:53:00,38.0,22.0,30.30,South,180,0.0,3.0,52,0.00,,,0.00,,2013-01-08 22:53:00,
2013-01-08 17:02:00,36.0,21.0,30.30,SSE,158,0.0,3.0,55,0.00,,,0.00,,2013-01-08 23:02:00,
2013-01-08 17:12:00,36.0,21.0,30.30,SSE,158,0.0,3.0,55,0.00,,,0.00,,2013-01-08 23:12:00,
2013-01-08 17:22:00,34.0,22.0,30.30,South,180,2.0,5.0,60,0.00,,,0.00,,2013-01-08 23:22:00,
2013-01-08 17:32:00,34.0,22.0,30.30,SSE,158,0.0,3.0,62,0.00,,,0.00,,2013-01-08 23:32:00,
2013-01-08 17:43:00,34.0,22.0,30.30,SSE,158,0.0,3.0,62,0.00,,,0.00,,2013-01-08 23:43:00,
2013-01-08 17:53:00,33.0,22.0,30.29,SE,137,0.0,1.0,63,0.00,,,0.00,,2013-01-08 23:53:00,
2013-01-08 18:02:00,33.0,23.0,30.30,SE,135,0.0,7.0,65,0.00,,,0.00,,2013-01-09 00:02:00,
2013-01-08 18:12:00,33.0,23.0,30.30,SE,135,0.0,7.0,65,0.00,,,0.00,,2013-01-09 00:12:00,
2013-01-08 18:22:00,32.0,22.0,30.29,SSE,162,5.0,6.0,66,0.00,,,0.00,,2013-01-09 00:22:00,
2013-01-08 18:33:00,32.0,22.0,30.29,SSE,162,5.0,6.0,66,0.00,,,0.00,,2013-01-09 00:33:00,
2013-01-08 18:42:00,32.0,22.0,30.29,SSE,162,5.0,6.0,66,0.00,,,0.00,,2013-01-09 00:42:00,
2013-01-08 18:53:00,32.0,22.0,30.28,South,173,2.0,3.0,67,0.00,,,0.00,,2013-01-09 00:53:00,
2013-01-08 19:02:00,32.0,23.0,30.28,South,180,5.0,7.0,68,0.00,,,0.00,,2013-01-09 01:02:00,
2013-01-08 19:12:00,32.0,23.0,30.28,South,180,5.0,7.0,68,0.00,,,0.00,,2013-01-09 01:12:00,
2013-01-08 19:22:00,33.0,23.0,30.29,South,180,8.0,8.0,67,0.00,,,0.00,,2013-01-09 01:22:00,
2013-01-08 19:32:00,32.0,22.0,30.30,SSE,158,1.0,6.0,67,0.00,,,0.00,,2013-01-09 01:32:00,
2013-01-08 19:42:00,32.0,22.0,30.30,SSE,158,1.0,6.0,67,0.00,,,0.00,,2013-01-09 01:42:00,
2013-01-08 19:52:00,31.0,22.0,30.29,South,180,6.0,8.0,68,0.00,,,0.00,,2013-01-09 01:52:00,
2013-01-08 20:02:00,32.0,23.0,30.29,South,180,3.0,8.0,69,0.00,,,0.00,,2013-01-09 02:02:00,
2013-01-08 20:12:00,32.0,23.0,30.29,South,180,3.0,8.0,69,0.00,,,0.00,,2013-01-09 02:12:00,
2013-01-08 20:22:00,31.0,22.0,30.29,South,180,3.0,3.0,69,0.00,,,0.00,,2013-01-09 02:22:00,
2013-01-08 20:32:00,31.0,22.0,30.28,South,180,4.0,9.0,70,0.00,,,0.00,,2013-01-09 02:32:00,
2013-01-08 20:42:00,31.0,22.0,30.28,South,180,4.0,9.0,70,0.00,,,0.00,,2013-01-09 02:42:00,
2013-01-08 20:53:00,32.0,23.0,30.29,South,171,0.0,3.0,70,0.00,,,0.00,,2013-01-09 02:53:00,
2013-01-08 21:03:00,32.0,23.0,30.28,South,173,5.0,8.0,70,0.00,,,0.00,,2013-01-09 03:03:00,
2013-01-08 21:12:00,32.0,23.0,30.28,South,173,5.0,8.0,70,0.00,,,0.00,,2013-01-09 03:12:00,
2013-01-08 21:22:00,33.0,24.0,30.27,South,180,4.0,10.0,69,0.00,,,0.00,,2013-01-09 03:22:00,
2013-01-08 21:33:00,33.0,24.0,30.28,South,185,5.0,9.0,69,0.00,,,0.00,,2013-01-09 03:33:00,
2013-01-08 21:42:00,33.0,24.0,30.28,South,185,5.0,9.0,69,0.00,,,0.00,,2013-01-09 03:42:00,
2013-01-08 21:53:00,35.0,25.0,30.27,South,180,7.0,12.0,67,0.00,,,0.00,,2013-01-09 03:53:00,
2013-01-08 22:02:00,35.0,25.0,30.27,South,180,9.0,9.0,66,0.00,,,0.00,,2013-01-09 04:02:00,
2013-01-08 22:12:00,35.0,25.0,30.27,South,180,9.0,9.0,66,0.00,,,0.00,,2013-01-09 04:12:00,
2013-01-08 22:22:00,35.0,25.0,30.27,South,180,4.0,8.0,66,0.00,,,0.00,,2013-01-09 04:22:00,
2013-01-08 22:32:00,35.0,25.0,30.27,South,180,3.0,8.0,66,0.00,,,0.00,,2013-01-09 04:32:00,
2013-01-08 22:42:00,34.0,24.0,30.27,South,180,6.0,7.0,67,0.00,,,0.00,,2013-01-09 04:42:00,
2013-01-08 22:52:00,34.0,24.0,30.27,South,180,6.0,7.0,67,0.00,,,0.00,,2013-01-09 04:52:00,
2013-01-08 23:03:00,34.0,25.0,30.27,South,172,7.0,7.0,68,0.00,,,0.00,,2013-01-09 05:03:00,
2013-01-08 23:12:00,34.0,25.0,30.27,South,172,7.0,7.0,68,0.00,,,0.00,,2013-01-09 05:12:00,
2013-01-08 23:22:00,33.0,24.0,30.25,South,180,3.0,3.0,69,0.00,,,0.00,,2013-01-09 05:22:00,
2013-01-08 23:33:00,33.0,24.0,30.25,South,175,2.0,3.0,69,0.00,,,0.00,,2013-01-09 05:33:00,
2013-01-08 23:42:00,33.0,24.0,30.25,South,175,2.0,3.0,69,0.00,,,0.00,,2013-01-09 05:42:00,
2013-01-08 23:52:00,32.0,24.0,30.25,South,180,0.0,0.0,71,0.00,,,0.00,,2013-01-09 05:52:00,